SCP
0 0 0 0 0 0 0 0 0 -0 -0 0 0 0 0 0 0 0 0 0 -0 -0 -0 0 0 0 -0 -0 0 0 0 0
-0 0 0 0 0 0 -0 -0 0 0 0 0 0 0 0 0 0 0 0 -0 -0 0 0 0 0 0 -0 -0 0 0 0 0
0 0 0 0 0 0 -0 -0 -0 0 0 0 0 0 0 0 0 0 0 0 0 0 0 0 0 0 0 0 0 -0 0 0
0 0 0 0 0 0 0 -0 -0 0 0 0 0 0 0 0 0 0 0 0 0 0 0 0 0 0 0 0 0 -0 0 -0
0 0 0 0 0 0 0 0 0 0 0 0 0 0 0 0 0 0 0 0 0 0 0 0 0 0 0 0 0 -0 -0 -0
0 0 0 0 0 0 -0 0 0 0 0 0 0 0 0 0 0 0 0 0 0 0 0 0 0 0 0 0 -0 -0 -0 -0
0 0 0 0 0 0 0 -0 0 0 0 0 0 0 0 0 0 0 0 0 0 0 0 0 0 0 0 0 0 -0 -0 -0
0 0 0 0 0 0 0 0 0 0 0 0 0 0 0 0 0 0 0 0 0 0 0 0 0 0 0 0 0 -0 -0 -0
0 0 0 0 0 0 0 0 0 0 0 0 0 0 0 0 0 0 0 0 0 0 0 0 0 0 0 0 0 0 0 0
0 0 0 0 0 0 0 0 0 0 0 0 0 0 0 0 0 0 0 0 0 0 0 0 0 0 0 0 0 0 0 0
0 0 0 0 0 0 0 0 0 0 0 0 0 0 0 0 0 0 0 0 0 0 0 0 0 0 0 0 0 0 0 0
0 0 0 0 0 0 0 0 0 0 0 0 0 -0 0 0 0 0 0 0 0 0 0 0 0 0 0 0 0 0 0 0
0 0 0 0 0 0 0 0 0 0 0 0 -0 0 0 0 0 0 0 0 0 0 0 0 0 0 0 0 0 0 0 0
-0 0 0 0 0 0 0 0 0 0 0 0 0 0 0 0 0 0 0 0 0 0 0 0 0 0 0 0 0 0 0 0
-0 -0 -0 0 0 0 0 0 0 0 0 0 0 0 0 0 0 -0 0 0 0 0 0 0 0 0 0 0 0 0 0 0
-0 -0 -0 -0 0 0 0 0 0 0 0 0 -0 -0 -0 -0 -0 -0 -0 0 0 0 0 0 0 0 0 0 0 0 0 0
-0 -0 -0 -0 -0 -0 0 -0 -0 0 0 -0 -0 -0 -0 -0 -0 -0 0 0 0 0 0 0 0 0 0 0 0 0 0 0
-0 -0 -0 -0 -0 0 0 -0 -0 -0 -0 -0 -0 -0 -0 -0 -0 0 0 0 0 0 0 0 0 0 0 0 0 0 0 0
-0 -0 -0 -0 -0 0 -0 -0 -0 -0 -0 -0 -0 -0 -0 -0 0 0 0 0 0 0 0 0 0 0 0 0 0 0 0 0
-0 -0 -0 -0 -0 0 0 -0 -0 -0 -0 -0 -0 -0 -0 0 0 0 0 0 0 0 0 0 0 0 0 0 0 0 0 0
Wind_Speed_500mb
40 49 54 53 55 43 49 59 69 70 67 62 75 76 73 68 66 58 55 51 47 48 45 43 41 40 37 39 39 36 37 40
34 60 66 66 52 48 61 69 66 82 85 73 77 80 75 68 59 60 55 50 46 48 45 39 37 34 33 35 36 35 35 36
28 28 58 59 55 44 27 66 78 69 75 83 83 78 72 65 64 63 54 48 44 46 43 37 35 33 31 32 32 33 30 31
33 32 51 51 39 31 18 58 66 86 81 84 83 75 70 65 64 63 55 46 42 41 38 34 30 28 29 28 27 28 26 27
32 44 50 44 36 28 41 69 101 95 85 82 81 79 72 63 68 65 57 46 42 39 36 29 23 19 25 26 24 23 23 25
29 34 38 36 36 52 77 82 100 101 91 79 83 79 73 68 65 59 53 49 40 36 34 31 25 25 22 21 20 21 22 21
29 29 30 33 51 74 79 74 86 88 91 77 76 71 68 66 59 55 52 46 38 35 29 26 25 26 22 17 16 17 17 17
31 31 33 48 67 76 77 72 74 80 83 82 77 70 63 57 55 52 49 43 37 31 30 30 25 22 20 16 13 14 12 13
30 30 34 50 70 76 75 71 88 87 81 79 71 62 53 47 44 42 43 41 37 35 34 27 23 20 17 15 12 12 8 8
31 34 42 48 57 69 74 82 90 86 76 75 69 61 59 47 55 52 45 39 36 32 25 21 20 18 17 15 12 10 8 8
40 42 49 52 59 75 81 79 76 82 76 69 63 58 56 57 53 48 42 37 36 27 24 17 15 16 16 14 14 12 11 13
32 43 52 58 63 76 82 76 63 82 74 73 68 58 57 52 46 42 42 40 32 27 22 22 19 15 15 16 18 21 22 22
32 43 52 64 60 67 68 83 69 69 75 84 62 59 56 49 44 44 44 37 29 28 28 28 22 22 21 24 28 31 32 33
35 37 49 63 62 68 59 71 68 74 79 70 58 57 55 50 47 48 40 32 32 36 33 27 26 30 30 29 30 39 46 48
40 41 44 55 64 77 72 65 59 73 73 69 61 56 51 47 49 43 39 38 36 36 34 33 34 37 37 33 17 23 35 37
46 51 45 53 71 80 80 77 69 72 70 67 73 56 55 51 47 45 44 42 40 43 40 42 40 43 48 51 54 55 42 25
47 52 50 53 66 77 83 78 77 78 72 68 76 61 59 56 52 51 49 47 46 48 47 49 51 53 58 62 59 64 65 65
49 52 51 56 64 74 86 83 83 81 82 74 70 67 63 60 54 55 55 55 52 54 53 55 57 60 63 65 66 60 57 58
50 52 58 59 66 75 86 88 88 89 88 84 78 71 68 63 61 61 62 62 64 61 64 66 64 66 66 70 68 65 67 65
58 58 59 63 69 76 87 89 88 89 86 82 82 80 75 71 66 63 64 65 68 69 70 69 71 69 70 65 63 62 57 63
Wind_Direction_500mb
225 221 210 194 195 219 207 208 213 198 185 178 173 170 168 167 166 163 161 153 143 136 134 129 118 110 104 101 99 103 105 108
221 212 213 201 213 225 229 220 212 192 177 167 178 170 169 167 162 163 162 151 142 136 137 135 121 111 107 100 98 101 102 101
231 209 201 210 212 209 249 230 216 179 163 164 174 166 165 159 159 163 164 153 142 138 137 136 127 117 109 105 103 106 107 103
208 208 199 199 225 237 228 183 184 159 157 163 167 161 160 156 159 166 164 158 151 142 139 138 133 124 119 109 105 103 107 103
207 217 203 209 225 211 188 171 157 156 157 170 163 158 154 155 163 167 166 165 162 151 149 143 136 132 125 112 107 100 102 105
198 201 202 199 201 184 168 155 157 156 161 168 161 159 160 162 163 163 165 167 166 159 154 148 152 147 126 118 111 104 106 115
206 203 203 189 182 177 159 158 151 163 162 170 162 159 157 161 159 163 164 161 165 165 159 159 157 140 136 133 122 120 115 115
205 206 197 174 169 163 161 157 157 158 166 169 163 162 159 161 158 161 159 162 168 168 166 166 153 151 147 146 140 140 130 128
197 196 193 180 172 170 170 174 169 161 171 167 164 160 161 161 167 165 170 167 170 172 165 157 162 157 161 165 163 165 152 170
192 194 189 181 183 183 179 166 163 168 174 167 163 169 178 176 193 184 176 177 182 170 158 160 172 174 180 184 185 194 204 218
203 200 193 187 182 178 176 171 173 172 167 174 178 186 185 187 188 185 185 188 188 174 170 172 185 189 195 207 211 216 230 248
199 205 194 188 183 178 179 175 173 181 168 173 182 193 193 191 190 194 200 198 192 190 192 195 189 208 222 230 235 235 239 247
197 204 197 192 188 185 186 185 181 182 179 177 197 199 199 198 198 205 210 206 213 213 213 211 212 222 231 248 253 254 253 254
196 204 210 198 194 188 183 181 186 183 190 201 210 203 204 205 207 213 214 213 223 227 230 232 234 236 239 252 258 262 267 265
197 200 194 200 194 187 187 186 189 189 201 203 204 203 206 209 215 216 220 225 236 243 246 247 249 247 249 243 240 252 280 280
198 197 194 195 196 190 190 192 194 198 200 196 209 213 212 216 219 225 230 237 247 254 257 257 256 254 253 251 252 259 262 276
201 196 206 204 200 199 197 198 198 199 204 201 210 214 216 223 228 234 238 244 253 259 259 259 259 257 258 260 260 260 260 259
200 203 207 202 206 205 200 200 202 203 208 210 212 215 221 229 235 241 248 253 259 264 264 261 259 260 261 265 263 260 267 266
207 208 208 207 206 207 204 205 207 210 212 216 218 221 227 233 240 245 251 257 262 266 265 265 265 264 268 267 265 265 266 266
204 206 209 208 206 206 208 208 212 217 220 223 227 232 236 241 246 254 258 262 267 269 268 269 269 271 268 263 266 262 262 263
Wind_Speed_850mb
40 49 54 53 55 43 49 59 69 70 67 62 75 76 73 68 66 58 55 51 47 48 45 43 41 40 37 39 39 36 37 40
34 60 66 66 52 48 61 69 66 82 85 73 77 80 75 68 59 60 55 50 46 48 45 39 37 34 33 35 36 35 35 36
28 28 58 59 55 44 27 66 78 69 75 83 83 78 72 65 64 63 54 48 44 46 43 37 35 33 31 32 32 33 30 31
33 32 51 51 39 31 18 58 66 86 81 84 83 75 70 65 64 63 55 46 42 41 38 34 30 28 29 28 27 28 26 27
32 44 50 44 36 28 41 69 101 95 85 82 81 79 72 63 68 65 57 46 42 39 36 29 23 19 25 26 24 23 23 25
29 34 38 36 36 52 77 82 100 101 91 79 83 79 73 68 65 59 53 49 40 36 34 31 25 25 22 21 20 21 22 21
29 29 30 33 51 74 79 74 86 88 91 77 76 71 68 66 59 55 52 46 38 35 29 26 25 26 22 17 16 17 17 17
31 31 33 48 67 76 77 72 74 80 83 82 77 70 63 57 55 52 49 43 37 31 30 30 25 22 20 16 13 14 12 13
30 30 34 50 70 76 75 71 88 87 81 79 71 62 53 47 44 42 43 41 37 35 34 27 23 20 17 15 12 12 8 8
31 34 42 48 57 69 74 82 90 86 76 75 69 61 59 47 55 52 45 39 36 32 25 21 20 18 17 15 12 10 8 8
40 42 49 52 59 75 81 79 76 82 76 69 63 58 56 57 53 48 42 37 36 27 24 17 15 16 16 14 14 12 11 13
32 43 52 58 63 76 82 76 63 82 74 73 68 58 57 52 46 42 42 40 32 27 22 22 19 15 15 16 18 21 22 22
32 43 52 64 60 67 68 83 69 69 75 84 62 59 56 49 44 44 44 37 29 28 28 28 22 22 21 24 28 31 32 33
35 37 49 63 62 68 59 71 68 74 79 70 58 57 55 50 47 48 40 32 32 36 33 27 26 30 30 29 30 39 46 48
40 41 44 55 64 77 72 65 59 73 73 69 61 56 51 47 49 43 39 38 36 36 34 33 34 37 37 33 17 23 35 37
46 51 45 53 71 80 80 77 69 72 70 67 73 56 55 51 47 45 44 42 40 43 40 42 40 43 48 51 54 55 42 25
47 52 50 53 66 77 83 78 77 78 72 68 76 61 59 56 52 51 49 47 46 48 47 49 51 53 58 62 59 64 65 65
49 52 51 56 64 74 86 83 83 81 82 74 70 67 63 60 54 55 55 55 52 54 53 55 57 60 63 65 66 60 57 58
50 52 58 59 66 75 86 88 88 89 88 84 78 71 68 63 61 61 62 62 64 61 64 66 64 66 66 70 68 65 67 65
58 58 59 63 69 76 87 89 88 89 86 82 82 80 75 71 66 63 64 65 68 69 70 69 71 69 70 65 63 62 57 63
Wind_Direction_850mb
225 221 210 194 195 219 207 208 213 198 185 178 173 170 168 167 166 163 161 153 143 136 134 129 118 110 104 101 99 103 105 108
221 212 213 201 213 225 229 220 212 192 177 167 178 170 169 167 162 163 162 151 142 136 137 135 121 111 107 100 98 101 102 101
231 209 201 210 212 209 249 230 216 179 163 164 174 166 165 159 159 163 164 153 142 138 137 136 127 117 109 105 103 106 107 103
208 208 199 199 225 237 228 183 184 159 157 163 167 161 160 156 159 166 164 158 151 142 139 138 133 124 119 109 105 103 107 103
207 217 203 209 225 211 188 171 157 156 157 170 163 158 154 155 163 167 166 165 162 151 149 143 136 132 125 112 107 100 102 105
198 201 202 199 201 184 168 155 157 156 161 168 161 159 160 162 163 163 165 167 166 159 154 148 152 147 126 118 111 104 106 115
206 203 203 189 182 177 159 158 151 163 162 170 162 159 157 161 159 163 164 161 165 165 159 159 157 140 136 133 122 120 115 115
205 206 197 174 169 163 161 157 157 158 166 169 163 162 159 161 158 161 159 162 168 168 166 166 153 151 147 146 140 140 130 128
197 196 193 180 172 170 170 174 169 161 171 167 164 160 161 161 167 165 170 167 170 172 165 157 162 157 161 165 163 165 152 170
192 194 189 181 183 183 179 166 163 168 174 167 163 169 178 176 193 184 176 177 182 170 158 160 172 174 180 184 185 194 204 218
203 200 193 187 182 178 176 171 173 172 167 174 178 186 185 187 188 185 185 188 188 174 170 172 185 189 195 207 211 216 230 248
199 205 194 188 183 178 179 175 173 181 168 173 182 193 193 191 190 194 200 198 192 190 192 195 189 208 222 230 235 235 239 247
197 204 197 192 188 185 186 185 181 182 179 177 197 199 199 198 198 205 210 206 213 213 213 211 212 222 231 248 253 254 253 254
196 204 210 198 194 188 183 181 186 183 190 201 210 203 204 205 207 213 214 213 223 227 230 232 234 236 239 252 258 262 267 265
197 200 194 200 194 187 187 186 189 189 201 203 204 203 206 209 215 216 220 225 236 243 246 247 249 247 249 243 240 252 280 280
198 197 194 195 196 190 190 192 194 198 200 196 209 213 212 216 219 225 230 237 247 254 257 257 256 254 253 251 252 259 262 276
201 196 206 204 200 199 197 198 198 199 204 201 210 214 216 223 228 234 238 244 253 259 259 259 259 257 258 260 260 260 260 259
200 203 207 202 206 205 200 200 202 203 208 210 212 215 221 229 235 241 248 253 259 264 264 261 259 260 261 265 263 260 267 266
207 208 208 207 206 207 204 205 207 210 212 216 218 221 227 233 240 245 251 257 262 266 265 265 265 264 268 267 265 265 266 266
204 206 209 208 206 206 208 208 212 217 220 223 227 232 236 241 246 254 258 262 267 269 268 269 269 271 268 263 266 262 262 263